Starlink 4139

operational
NORAD ID: 52879 Int'l Des: 2022-062 Owner: SPXS Country: US Constellation: starlink
LEOCIRCULAR

About Starlink 4139

Description loading...

Live Position

Loading 3D Globe...

Upcoming Passes

Altitude History

Altitude vs Time

uPlot chart will show altitude changes over time

Two-Line Element Set

1 52879U 22062BB 25306.46797088 -.00001124 00000-0 -52534-4 0 9991
2 52879 53.2178 225.2437 0001442 110.6866 249.4281 15.08843935186868
Epoch: Nov 2, 2025 • Age: 25 hours

Current Status

Altitude 540.1 km
Velocity 7.59 km/s
Sub-Earth Point 9.55°N, 6.16°W
Launch Date Jun 17, 2022
Age 3.3 years
Type internet

Technical Details

Classification Payload
Mass 297.00 kg
Dry Mass 275.00 kg
Total Mass 297.00 kg
Length 0.20 m
Diameter 2.80 m
Span 9.00 m
Shape Box + pan
Manufacturer SPXS
Bus Type Starlink
Phase Status In Orbit
Owner/State SPXS/US

Large Constellations

Loading constellations...